Regional Weather Roundup
Issued by NWS

Home | Current Version | Previous Version | Text Only | Print | Product List | Glossary On
Versions: 1 2 3 4 5 6 7 8 9 10 11 12 13 14 15 16 17 18 19 20 21 22 23 24 25 26 27 28 29 30 31 32 33 34 35 36 37 38 39 40 41 42 43 44 45 46 47 48 49 50
939
ASUS42 KKEY 261710
RWRKEY

FLORIDA REGIONAL WEATHER ROUNDUP FOR THE FLORIDA KEYS
NATIONAL WEATHER SERVICE KEY WEST FLORIDA
100 PM EDT SUN MAR 26 2017

...SOUTH FLORIDA AND THE KEYS...

CITY           SKY/WX    TMP DP  RH WIND       PRES   REMARKS
FORT MYERS     LGT RAIN  79  63  57 SE10      30.11F
SW REGIONAL AP CLOUDY    79  61  53 E10       30.12F
NAPLES         PTSUNNY   77  65  66 E5        30.11F
MIAMI          PTSUNNY   81  61  50 E12       30.11F
WEST KENDALL   CLOUDY    83  63  50 SE14      30.11F
HOMESTEAD      MOSUNNY   78  67  67 E16       30.10F
MARATHON       SUNNY     83  66  56 E9G18     30.08F
BOCA CHICA NAS MOSUNNY   81  66  60 E14       30.09S
KEY WEST INTL  MOSUNNY   81  67  62 E13       30.09F

...INTERNATIONAL WEATHER...

CITY           SKY/WX    TMP DP  RH WIND       PRES   REMARKS
NASSAU BAHAMAS MOSUNNY   82  61  47 NE15      30.11S
CANCUN MEXICO  MOSUNNY   84  66  54 E9        30.04F
COZUMEL MEXICO PTSUNNY   84  66  54 SE14      30.01F

ADJACENT COASTAL WATERS...

STATION/POSITION TIME  SKY/WX   TEMP    WIND        PRES    WAVE
                                AIR SEA DIR/SP/G            HT/PER
                 (UTC)          (F)     (DEG/KT/KT) (MB)    (FT/S)
PULASKI SHOAL LI 1700            73      80/ 15/ 16 1018.9F
SAND KEY         1650            77     120/ 15/ 18 1019.3F
LONG KEY         1600            75 74  130/  8/  9 1019.8S
MOLASSES REEF    1700            75 78  100/ 14/ 16 1019.5F
FOWEY ROCKS      1700            74 76   80/ 13/ 15 1020.2F
Buoy 42097       1630                                 N/A     3/ 4

$$




USA.gov is the U.S. government's official web portal to all federal, state and local government web resources and services.